Probability
0 0 0 0 0 0 0 0 0 0 0 1 6 15 21 25 27 28 28 30 32 30 25 22 22 24 25 24 19 14 11 12 11 9 8 8 9 9 9 8 6 6 6 6
0 0 0 0 0 0 0 0 0 0 0 0 5 11 16 21 26 27 28 30 30 27 24 22 21 21 23 23 19 14 11 11 11 9 8 9 9 9 9 7 5 4 5 6
0 0 0 0 0 0 0 0 0 0 0 0 3 7 11 18 25 27 27 27 24 20 19 18 17 16 17 18 17 14 11 10 9 10 10 10 8 8 7 5 3 3 4 4
0 0 0 0 0 0 0 0 0 0 0 0 1 3 7 15 23 25 24 21 16 12 10 11 11 11 11 12 12 11 10 9 8 9 11 9 7 6 5 4 3 3 3 3
0 0 0 0 0 0 0 0 0 0 0 0 0 0 3 9 16 19 18 15 11 7 5 5 7 7 8 9 9 9 7 6 6 8 8 7 6 4 4 3 3 3 3 3
0 0 0 0 0 0 0 0 0 0 0 0 0 0 1 4 8 12 12 10 7 5 3 3 4 5 6 7 7 5 4 4 4 5 5 5 4 3 3 3 3 3 2 1
0 0 0 0 0 0 0 0 0 0 0 0 0 0 0 1 4 7 6 5 4 3 3 3 3 4 5 5 3 2 2 3 3 3 3 3 3 3 3 3 3 2 1 0
0 0 0 0 0 0 0 0 0 0 0 0 0 0 0 0 1 2 2 1 1 2 2 2 2 3 3 2 1 0 1 2 3 2 2 2 3 3 3 2 1 1 0 0
0 0 0 0 0 0 0 0 0 0 0 0 0 0 0 0 0 0 0 0 0 0 0 1 1 1 1 0 0 0 1 2 3 2 1 2 3 2 2 1 0 0 0 0
0 0 0 0 0 0 0 0 0 0 0 0 0 0 0 0 0 0 0 0 0 0 0 0 0 0 0 0 0 0 1 2 2 1 1 1 1 1 1 0 0 0 0 0
0 0 0 0 0 0 0 0 0 0 0 0 0 0 0 0 0 0 0 0 0 0 0 0 0 0 0 0 0 0 0 1 1 0 0 0 0 0 0 0 0 0 0 0
0 0 0 0 0 0 0 0 0 0 0 0 0 0 0 0 0 0 0 0 0 0 0 0 0 0 0 0 0 0 0 0 0 0 0 0 0 0 0 0 0 0 0 0
0 0 0 0 0 0 0 0 0 0 0 0 0 0 0 0 0 0 0 0 0 0 0 0 0 0 0 0 0 0 0 0 0 0 0 0 0 0 0 0 0 0 0 0
0 0 0 0 0 0 0 0 0 0 0 0 0 0 0 0 0 0 0 0 0 0 0 0 0 0 0 0 0 0 0 0 0 0 0 0 0 0 0 0 0 0 0 0
0 0 0 0 0 0 0 0 0 0 0 0 0 0 0 0 0 0 0 0 0 0 0 0 0 0 0 0 0 0 0 0 0 0 0 0 0 0 0 0 0 0 0 0
0 0 0 0 0 0 0 0 0 0 0 0 0 0 0 0 0 0 0 0 0 0 0 0 0 0 0 0 0 0 0 0 0 0 0 0 0 0 0 0 0 0 0 0
0 0 0 0 0 0 0 0 0 0 0 0 0 0 0 0 0 0 0 0 0 0 0 0 0 0 0 0 0 0 0 0 0 0 0 0 0 0 0 0 0 0 0 0
0 0 0 0 0 0 0 0 0 0 0 0 0 0 0 0 0 0 0 0 0 0 0 0 0 0 0 0 0 0 0 0 0 0 0 0 0 0 0 0 0 0 0 0
0 0 0 0 0 0 0 0 0 0 0 0 0 0 0 0 0 0 0 0 0 0 0 0 0 0 0 0 0 0 0 0 0 0 0 0 0 0 0 0 0 0 0 0
0 0 0 0 0 0 0 0 0 0 0 0 0 0 0 0 0 0 0 0 0 0 0 0 0 0 0 0 0 0 0 0 0 0 0 0 0 0 0 0 0 0 0 0
0 0 0 0 0 0 0 0 0 0 0 0 0 0 0 0 0 0 0 0 0 0 0 0 0 0 0 0 0 0 0 0 0 0 0 0 0 0 0 0 0 0 0 0
0 0 0 0 0 0 0 0 0 0 0 0 0 0 0 0 0 0 0 0 0 0 0 0 0 0 0 0 0 0 0 0 0 0 0 0 0 0 0 0 0 0 0 0
0 0 0 0 0 0 0 0 0 0 0 0 0 0 0 0 0 0 0 0 0 0 0 0 0 0 0 0 0 0 0 0 0 0 0 0 0 0 0 0 0 0 0 0
0 0 0 0 0 0 0 0 0 0 0 0 0 0 0 0 0 0 0 0 0 0 0 0 0 0 0 0 0 0 0 0 0 0 0 0 0 0 0 0 0 0 0 0
0 0 0 0 0 0 0 0 0 0 0 0 0 0 0 0 0 0 0 0 0 0 0 0 0 0 0 0 0 0 0 0 0 0 0 0 0 0 0 0 0 0 0 0
0 0 0 0 0 0 0 0 0 0 0 0 0 0 0 0 0 0 0 0 0 0 0 0 0 0 0 0 0 0 0 0 0 0 0 0 0 0 0 0 0 0 0 0
Wind_Speed
1 2 5 8 8 7 4 5 6 7 5 2 5 6 4 5 9 9 7 7 9 9 8 8 8 7 7 6 6 5 5 3 2 3 4 3 2 2 2 2 3 3 1 1
2 6 13 9 7 6 6 6 6 6 3 3 6 5 3 4 6 7 8 8 9 9 8 8 9 9 8 7 5 5 4 2 2 2 2 2 3 3 3 3 4 5 4 3
8 9 7 7 7 6 5 5 5 4 3 4 5 3 2 3 6 8 8 9 8 9 8 8 9 9 8 8 6 5 4 3 3 3 4 4 4 3 3 4 4 5 5 5
6 9 7 7 8 6 5 6 3 0 3 2 2 1 2 2 5 7 7 7 7 8 8 8 8 8 8 8 7 7 7 6 5 4 5 5 4 4 4 3 4 5 6 6
7 5 4 6 8 5 6 3 1 2 2 1 2 2 3 2 4 5 6 7 7 7 7 8 8 8 8 8 7 6 7 7 7 6 6 7 7 6 5 5 7 6 6 7
9 7 4 6 6 4 3 4 6 6 5 2 2 2 2 1 3 6 6 8 7 7 7 8 8 7 7 8 7 7 7 8 7 7 7 8 8 8 8 7 6 5 5 6
7 7 4 3 2 3 4 6 5 5 5 3 2 2 1 1 2 7 9 8 7 7 7 8 8 8 8 8 8 7 8 9 8 8 8 8 8 8 8 7 6 6 5 5
2 5 4 1 3 2 2 8 7 4 4 4 2 1 0 2 6 9 10 9 9 8 8 8 7 7 7 8 8 7 8 8 8 8 8 8 8 6 6 7 6 6 5 5
3 4 4 2 0 3 2 2 6 7 2 1 2 1 1 5 7 8 10 10 9 8 8 8 7 7 7 7 7 7 7 8 8 8 8 8 8 7 8 7 7 6 5 5
4 3 3 3 4 3 4 4 5 5 3 2 2 4 5 8 9 8 9 9 8 7 8 7 7 6 7 7 7 7 8 8 7 7 7 8 8 8 7 7 8 7 7 6
2 2 3 3 1 1 2 2 4 3 4 5 4 5 5 11 12 12 10 10 9 9 8 7 6 6 6 7 7 7 7 8 8 8 7 8 8 8 8 8 8 7 7 7
1 4 1 4 4 2 3 4 6 4 3 4 4 5 2 7 10 12 11 11 9 9 8 7 6 6 6 6 6 7 7 7 7 7 7 8 8 8 8 8 7 7 7 7
2 5 3 6 7 3 1 2 4 5 4 3 4 4 3 8 10 10 11 11 10 10 9 8 6 6 6 6 6 6 6 6 6 6 7 7 7 7 7 7 7 7 7 7
3 4 5 5 6 4 3 4 2 4 4 4 5 6 7 10 11 11 11 11 10 9 9 8 6 6 6 5 5 6 5 5 6 6 6 6 6 6 6 6 6 6 6 7
4 2 2 4 4 2 2 5 3 2 5 6 6 9 11 13 13 14 13 12 11 10 10 9 7 6 6 5 5 5 5 4 5 5 5 5 4 5 6 6 6 6 7 8
3 1 2 3 4 3 4 4 2 0 2 4 6 3 6 11 11 12 13 13 12 11 11 9 9 8 7 6 6 5 5 4 4 5 4 4 5 5 5 5 6 6 6 6
2 1 1 3 5 3 3 3 1 0 1 5 6 7 13 13 14 15 14 13 12 11 11 10 9 8 6 6 6 6 5 4 4 4 4 4 4 5 4 6 6 5 5 6
3 1 1 1 3 1 5 2 1 3 2 2 6 12 14 12 10 8 10 12 12 11 11 9 8 8 6 5 5 5 4 4 4 4 4 4 5 5 5 5 5 4 4 5
7 5 2 1 0 4 3 1 2 3 1 3 11 14 11 13 9 5 6 8 9 9 9 8 8 7 6 6 5 5 4 4 5 5 5 4 5 5 5 5 4 3 3 4
3 5 4 2 2 4 5 2 3 5 1 4 12 15 15 12 7 6 9 10 10 10 9 8 8 7 6 5 5 5 5 5 5 4 4 4 5 5 5 4 3 2 3 3
3 2 2 2 2 5 5 3 1 2 7 9 11 15 13 6 6 11 14 11 11 10 10 9 8 7 6 6 6 5 5 4 4 5 5 5 4 4 4 3 2 3 3 4
1 1 1 2 2 6 4 1 2 4 5 10 10 10 9 10 13 15 14 13 12 10 9 9 8 6 5 6 7 6 5 4 4 5 5 4 3 3 3 3 3 3 4 4
0 2 2 3 5 4 2 1 1 6 10 7 9 10 14 14 14 15 13 12 11 10 8 7 8 7 5 6 7 6 4 4 5 4 4 3 4 4 3 3 3 3 3 3
2 1 2 0 2 1 3 4 5 8 9 10 13 14 14 15 15 15 13 11 10 8 8 7 8 8 6 5 6 5 5 5 5 4 3 3 4 4 4 4 3 3 3 3
4 1 1 0 1 4 4 5 10 12 13 14 12 12 14 17 16 14 12 11 9 8 7 7 8 7 6 5 5 4 5 5 5 4 3 3 4 4 4 4 3 3 1 2
3 4 3 5 5 3 3 6 13 14 13 14 15 13 12 13 14 12 11 9 8 9 7 8 7 7 6 6 5 4 5 5 5 3 3 3 3 3 3 4 3 5 3 4
Wind_Direction
231 105 236 238 214 212 246 275 285 282 286 117 135 134 135 116 114 120 120 111 101 89 77 66 62 61 62 57 61 66 71 75 110 128 128 132 118 104 85 59 53 54 52 97
351 256 240 239 246 241 246 264 279 295 322 93 110 110 112 112 127 131 122 108 102 98 82 65 57 53 49 43 46 56 54 56 86 125 129 124 117 90 77 55 49 38 36 50
216 247 254 238 245 248 253 230 242 261 341 42 98 48 61 70 91 92 95 99 97 97 84 66 56 48 44 37 35 47 39 48 64 105 114 111 97 89 71 53 49 36 38 47
242 253 265 259 249 227 254 249 226 187 68 333 90 200 275 126 104 103 99 92 88 85 79 67 58 50 44 36 33 45 38 42 44 69 107 110 106 100 83 75 65 50 43 45
257 261 259 255 248 217 218 233 102 96 113 36 12 127 281 105 120 128 118 105 93 86 79 70 59 54 49 40 36 42 48 45 42 53 81 96 98 99 93 83 72 59 47 46
260 273 251 241 257 218 173 67 38 42 66 28 276 148 274 292 177 150 129 112 99 90 79 71 61 53 50 47 42 44 54 52 50 58 69 90 104 105 99 87 78 64 52 44
292 294 276 253 298 321 87 84 32 1 12 262 284 121 226 340 113 138 135 117 101 93 82 70 58 51 45 45 43 44 55 57 56 64 69 78 88 92 92 90 82 75 62 53
261 294 293 253 176 206 197 138 157 195 223 264 329 157 183 63 96 107 115 115 103 91 80 73 64 59 53 49 45 45 54 60 58 66 68 70 77 83 83 83 83 76 69 60
212 260 295 324 29 132 131 159 166 142 162 215 262 181 183 126 115 117 121 114 105 97 90 80 68 60 56 55 50 49 55 62 61 66 75 73 73 79 84 81 77 74 70 69
192 251 301 323 28 42 143 146 87 106 150 240 250 220 206 182 169 150 135 127 118 109 98 89 78 69 63 60 56 54 58 63 59 61 73 81 75 75 77 79 76 72 66 63
173 173 312 10 66 253 42 86 115 130 163 169 223 250 215 183 171 161 149 139 132 123 112 102 90 81 74 68 64 62 60 62 62 62 68 75 74 73 72 73 72 71 68 64
129 114 280 278 268 207 175 191 153 155 226 180 185 257 345 154 149 147 141 136 130 123 118 112 103 94 84 75 70 66 65 67 65 66 70 73 72 72 71 68 67 69 68 65
88 96 50 344 339 345 269 220 172 147 136 168 182 237 86 118 127 137 138 136 133 128 124 118 112 105 98 91 84 79 76 76 71 70 70 72 70 70 69 67 65 70 73 70
102 115 158 199 234 255 280 278 229 138 157 199 203 177 162 155 147 145 143 139 137 134 131 128 120 114 111 106 101 96 88 83 83 75 74 75 75 77 78 74 70 71 74 72
78 116 218 239 252 235 278 297 291 222 189 184 200 178 184 173 161 155 150 146 145 143 142 140 135 127 123 118 113 109 105 97 93 85 80 78 77 77 78 76 72 71 74 78
38 91 355 323 315 332 317 319 301 308 140 142 131 160 152 142 139 149 154 156 156 153 149 144 138 136 134 132 128 118 115 110 104 96 93 87 83 82 82 82 79 78 74 73
349 76 43 301 315 7 326 309 324 49 160 157 174 169 141 145 158 163 163 163 160 155 148 144 142 140 137 137 130 124 125 121 113 108 106 99 94 93 91 94 84 82 79 80
176 111 121 298 7 281 251 264 96 91 19 124 126 142 152 151 147 148 155 157 155 152 147 145 142 139 134 128 124 122 121 121 120 116 113 109 102 95 88 85 83 82 81 85
171 155 146 133 253 278 289 296 136 122 35 124 132 136 128 119 105 113 143 148 149 146 141 138 138 134 131 129 127 119 115 108 106 107 110 110 106 102 96 93 90 87 88 84
124 126 132 143 169 241 251 259 139 107 156 159 143 144 144 139 149 171 154 139 133 131 132 132 130 126 130 135 128 115 112 109 114 120 118 114 114 112 110 108 94 82 94 98
20 66 148 176 215 258 260 271 160 182 216 161 152 151 154 165 160 143 140 135 133 133 134 133 131 132 140 138 124 118 115 117 123 114 107 103 107 114 114 99 86 94 93 89
248 113 173 150 202 253 296 347 185 203 132 136 141 147 137 120 119 129 134 137 137 134 134 135 133 132 132 126 119 115 116 119 106 100 98 96 101 110 106 95 83 88 98 95
252 181 187 193 220 251 329 131 143 126 125 128 134 134 130 126 131 132 134 136 136 136 136 133 132 125 120 122 123 126 134 123 106 95 93 91 87 74 81 93 97 85 88 100
313 43 115 328 283 353 57 79 87 110 118 123 130 132 133 131 134 133 135 136 136 135 134 131 129 128 128 130 131 138 138 123 114 111 102 94 88 74 66 69 84 94 97 106
267 296 84 161 219 57 53 103 113 106 110 115 119 126 132 133 135 136 136 137 137 134 130 130 133 136 138 135 136 140 135 124 119 119 111 98 97 101 86 69 64 89 81 160
226 183 179 212 203 154 164 143 127 121 123 126 124 120 127 132 133 133 134 134 133 132 129 131 134 138 139 138 138 139 136 129 126 122 124 122 122 118 115 106 66 42 68 81